Presure
127 159 113 121 149 140 167 146 140 96 126 94 99 152 128 93 125 89 92 100 100 107 110 103 129 133 141 177 140 115 110 107 103 104 122 104 115 95 101 123 127 107 101
133 147 133 140 144 156 160 140 150 126 116 98 102 100 104 122 97 95 89 92 112 101 108 112 120 131 156 138 136 184 118 116 112 101 106 98 113 117 128 105 125 107 99
154 140 147 134 101 161 112 137 141 133 149 93 90 106 100 120 141 99 96 89 97 103 100 133 108 127 124 133 161 109 109 110 114 109 108 106 104 112 147 122 105 119 103
142 113 108 170 159 131 147 119 150 110 136 163 129 90 145 134 123 95 113 101 89 92 107 103 141 112 137 137 133 158 128 97 113 120 116 115 128 97 114 119 93 110 123
89 118 149 127 128 118 138 144 126 170 131 164 125 130 140 142 108 96 114 114 93 152 96 107 102 111 115 138 144 135 148 100 103 117 131 114 122 115 113 114 90 98 106
130 141 89 175 174 131 102 124 175 158 105 138 138 121 166 153 160 95 98 90 102 91 90 95 98 104 125 116 130 133 133 163 107 114 98 92 121 100 101 94 114 101 97
156 99 141 104 84 89 142 113 95 140 121 158 104 169 110 151 137 153 100 95 100 96 90 91 94 98 105 149 122 124 131 135 109 146 98 112 125 117 101 94 106 90 114
143 100 162 141 131 173 95 96 134 147 120 118 135 118 129 124 157 136 121 142 116 101 90 90 95 101 132 104 109 126 138 159 103 109 101 151 116 108 113 106 114 100 107
77 139 77 128 145 88 163 136 92 179 95 145 115 113 158 116 156 118 145 141 114 111 118 104 111 96 98 104 101 111 136 142 170 148 108 119 147 160 102 112 109 102 107
86 83 163 123 107 97 80 128 96 92 92 140 95 156 148 196 135 104 136 152 141 134 133 124 144 159 97 104 103 99 110 121 155 145 163 111 140 158 140 114 113 112 94
122 78 108 114 119 91 171 108 146 168 102 139 156 118 96 96 101 159 150 137 111 135 135 117 110 146 115 97 108 145 103 112 151 138 106 166 118 135 169 124 114 110 99
150 137 133 105 83 155 137 84 124 160 125 96 91 92 95 93 120 146 151 157 139 109 133 141 152 143 140 92 165 100 171 102 112 170 141 134 170 114 113 165 143 102 109
162 138 177 129 142 136 86 109 132 154 140 125 121 175 132 121 101 135 99 176 100 152 106 112 151 162 146 174 148 182 97 133 106 109 141 130 166 120 136 108 110 121 114
130 143 133 146 174 130 145 83 126 175 128 148 150 140 122 147 154 187 133 121 142 142 102 158 156 157 149 142 106 143 135 98 97 109 108 117 127 129 129 184 107 104 106
168 140 153 145 129 156 145 129 174 82 92 79 88 147 102 100 115 149 141 119 128 149 100 128 183 134 145 151 180 159 144 166 162 100 104 110 119 153 140 142 167 102 101
164 137 132 150 167 124 132 150 164 141 136 87 86 83 149 146 155 89 148 147 138 120 155 174 162 162 161 171 156 157 120 151 162 158 109 102 108 117 150 137 153 171 102
158 121 164 142 159 132 161 132 159 157 132 161 153 161 85 87 84 88 151 122 166 141 142 148 179 106 183 145 156 159 184 163 145 161 156 117 115 104 115 119 190 135 165
144 148 147 125 130 160 127 136 146 173 168 126 157 167 168 171 170 77 162 87 91 153 141 156 145 150 159 156 172 119 154 141 178 172 153 120 121 120 105 116 118 129 169
158 139 147 157 152 146 145 132 133 131 149 167 150 119 146 168 158 179 156 129 167 95 108 158 100 118 172 128 96 127 159 173 161 167 169 175 157 121 116 121 110 116 121
165 160 171 165 152 153 129 122 164 151 135 138 127 124 169 128 131 119 140 167 89 87 112 134 96 121 129 132 107 99 176 196 180 182 122 142 166 169 210 132 121 115 117
168 155 170 168 172 135 163 139 150 127 163 144 133 144 154 177 134 118 122 132 135 135 159 78 94 141 175 121 139 140 143 191 193 155 161 257 243 197 108 159 231 122 122
176 179 174 173 174 164 144 135 172 134 168 130 136 171 124 167 174 153 138 160 124 126 161 142 182 98 82 123 137 139 144 113 131 163 179 150 154 116 205 191 118 186 226
178 174 172 171 179 219 210 182 209 140 167 180 146 138 131 180 167 144 166 165 166 196 183 174 124 165 227 168 129 151 162 209 229 209 178 209 212 184 196 164 217 161 175
224 214 226 202 154 194 184 218 205 202 220 207 190 151 148 169 141 186 131 150 204 214 205 172 209 195 130 205 125 203 168 126 209 135 172 140 133 142 141 158 224 215 174
189 195 203 214 223 221 220 207 201 190 188 187 190 182 187 199 130 193 194 193 209 138 163 131 147 215 144 214 207 213 165 196 206 103 175 138 133 135 214 144 214 152 147
244 215 181 185 194 200 201 196 195 200 205 212 215 202 198 206 218 211 211 193 207 210 189 150 123 119 151 130 135 138 216 223 222 131 132 153 93 146 190 181 134 197 160
Wind_Speed
35 38 29 31 29 32 30 28 30 23 23 19 20 17 13 12 14 11 8 6 5 4 3 2 5 5 5 23 4 9 12 13 14 15 8 14 11 22 21 10 9 25 25
34 38 34 35 33 33 30 36 32 32 27 22 22 21 20 18 14 13 12 9 8 6 5 5 4 7 10 7 7 21 10 10 12 15 14 18 11 10 6 19 8 21 27
46 40 39 39 26 37 31 35 35 31 33 22 20 23 22 23 18 15 14 13 10 8 7 11 6 8 9 9 19 14 12 12 11 13 13 14 16 13 8 7 18 10 19
50 34 32 38 42 36 42 34 35 33 31 33 28 23 28 25 22 18 17 18 13 12 10 8 17 9 15 13 11 19 7 12 14 11 13 12 6 16 13 9 19 16 7
31 38 50 42 38 33 43 41 36 37 37 33 33 32 28 31 24 21 18 24 17 23 11 11 10 11 11 15 15 14 12 15 14 14 9 13 10 11 15 15 19 18 16
48 50 35 49 45 44 37 39 39 39 35 38 37 35 36 36 31 24 23 21 20 18 17 13 13 12 13 13 15 18 18 17 17 17 17 16 12 14 15 15 14 18 19
57 46 49 40 29 32 50 41 33 38 38 40 35 36 33 40 34 35 26 23 24 21 19 19 17 15 15 22 17 19 19 19 19 12 20 18 12 16 16 15 15 15 10
50 39 53 51 49 53 39 36 45 45 39 38 41 36 38 36 38 40 31 37 29 25 24 22 20 20 19 18 18 19 22 23 19 22 21 15 21 21 19 19 17 16 18
40 54 33 48 52 37 52 48 37 54 37 46 39 40 43 38 42 34 48 40 34 33 31 27 28 24 22 21 18 20 25 24 25 23 23 19 19 23 20 22 21 19 17
51 47 59 50 46 39 32 48 41 38 36 50 37 46 47 49 45 38 42 44 44 38 37 35 37 35 25 25 22 20 24 24 26 24 23 24 23 21 24 24 23 22 18
59 48 57 55 59 47 55 45 55 53 47 48 49 47 37 38 40 47 46 45 38 43 39 39 34 42 30 25 28 35 24 27 30 28 22 28 29 26 33 24 26 24 21
66 63 62 51 48 60 57 41 52 60 50 45 40 39 42 39 42 50 49 48 47 41 47 45 47 43 38 29 41 28 36 25 29 40 31 28 35 29 29 31 28 24 24
69 70 87 63 64 60 50 61 56 63 58 49 57 61 54 49 49 52 41 58 39 52 40 42 54 51 50 41 48 46 28 35 28 28 35 34 46 28 31 28 28 25 28
68 69 65 75 79 65 69 51 59 72 59 62 65 61 51 60 60 69 52 50 55 55 43 53 57 56 54 49 38 44 45 30 27 32 31 34 36 37 32 62 31 28 28
85 76 77 74 68 73 71 66 78 48 55 41 45 67 55 51 56 63 62 52 49 63 47 54 69 49 56 61 62 53 51 54 50 30 31 34 36 43 40 36 47 30 28
85 75 75 81 79 72 70 72 71 68 68 55 48 47 65 65 66 46 59 64 63 47 61 69 62 61 62 65 61 61 47 52 54 56 38 32 33 37 50 42 43 53 33
85 74 92 80 84 74 80 71 84 80 70 73 76 71 53 53 48 50 71 61 71 67 58 61 84 50 85 62 64 62 84 61 54 57 59 43 41 34 39 41 75 43 49
88 95 86 77 78 89 73 76 81 101 87 73 77 83 77 84 84 46 84 51 50 72 67 70 65 66 66 69 74 50 68 59 67 63 61 49 48 45 36 40 42 44 50
108 89 93 94 89 89 84 78 80 76 82 98 79 68 77 87 76 101 73 67 83 57 60 75 55 59 81 61 48 58 75 71 69 65 75 63 66 48 45 46 41 44 46
120 102 123 115 94 100 80 68 97 90 82 80 73 70 98 77 75 68 75 97 54 58 66 71 59 65 68 63 56 54 91 103 91 88 49 63 65 65 85 55 50 46 47
120 101 122 120 128 88 106 88 98 79 96 89 81 86 88 121 80 63 69 76 78 78 79 48 59 76 98 68 70 69 68 96 99 70 67 85 86 79 49 63 88 55 52
136 141 133 128 131 113 98 90 126 86 119 82 86 115 72 110 118 96 80 88 68 69 95 83 116 61 53 67 71 70 72 63 66 70 71 66 62 55 71 73 54 65 68
137 127 124 124 143 123 129 118 116 96 112 130 95 85 79 114 109 87 102 103 102 104 121 82 67 91 97 87 61 72 80 87 83 76 75 73 80 79 79 67 67 62 61
123 128 121 117 101 138 133 120 124 132 119 125 119 98 91 101 88 118 77 92 110 102 112 100 95 94 75 87 71 86 86 62 75 65 74 67 60 64 64 70 69 71 66
133 129 122 119 119 119 120 120 122 124 127 126 126 123 121 116 78 122 125 127 108 83 88 75 84 96 81 95 93 91 85 85 90 58 72 67 65 67 75 69 74 67 64
123 125 124 123 123 121 121 124 124 121 119 117 116 121 122 117 114 112 110 118 112 109 101 82 70 68 83 73 77 77 90 88 87 72 72 78 55 74 78 80 73 74 71
Wind_Direction
221 232 220 224 223 231 231 215 230 219 233 212 216 251 246 203 248 190 194 196 189 182 172 196 208 222 270 331 237 156 148 147 146 137 145 134 135 133 127 114 91 130 128
236 230 231 227 225 225 230 229 227 223 225 220 219 218 225 237 210 202 197 194 230 189 190 197 223 222 321 237 239 332 179 159 166 146 149 145 146 136 113 131 106 136 136
229 234 230 231 219 234 225 234 234 228 241 212 203 220 220 230 244 214 207 193 197 210 205 291 218 227 220 228 325 175 166 174 181 166 166 162 157 152 37 126 140 132 133
234 228 226 242 235 227 229 229 243 224 242 236 233 208 253 253 234 218 241 207 196 199 214 209 281 226 229 225 232 321 220 174 188 198 181 183 173 156 155 144 144 141 121
231 234 232 230 227 225 234 235 235 245 238 241 227 232 250 256 229 219 232 230 208 278 202 212 217 225 226 232 230 243 302 181 182 198 224 186 201 184 177 166 153 156 151
235 234 228 249 247 235 223 230 252 239 223 234 244 224 239 244 253 223 223 202 222 203 203 213 218 221 265 231 229 231 235 301 194 201 184 169 200 180 185 172 178 167 162
239 230 234 232 224 225 232 230 223 236 233 245 228 248 233 243 245 253 229 220 213 214 208 212 222 223 224 266 235 227 236 241 205 281 189 199 212 200 190 185 193 173 177
238 231 239 237 235 245 232 227 235 240 233 232 239 236 240 241 250 241 245 261 235 226 204 216 220 228 262 219 230 244 238 289 209 211 202 283 205 199 201 202 204 198 190
239 237 235 236 239 230 248 238 226 256 228 244 235 230 246 237 243 237 258 254 241 238 246 230 234 225 230 229 219 235 248 242 289 249 219 225 254 299 201 205 205 198 207
234 235 240 235 233 234 223 237 231 229 231 242 230 251 244 261 241 231 253 252 258 248 242 247 264 275 227 236 228 221 239 239 267 256 291 225 243 278 242 209 209 204 200
237 241 237 236 234 238 249 237 242 250 234 245 245 237 233 236 237 251 247 245 239 253 251 238 240 264 243 228 238 264 229 236 268 248 236 297 229 238 296 233 214 213 210
246 234 232 237 239 246 235 238 239 246 240 233 233 231 234 235 248 243 249 252 247 241 248 253 257 256 250 229 277 234 274 230 234 290 252 261 300 230 225 291 255 218 218
245 235 265 234 245 232 243 235 239 240 238 242 240 261 243 242 235 242 240 256 237 246 243 241 255 267 254 286 260 298 236 250 241 236 251 237 300 240 256 230 224 241 224
234 241 235 239 264 229 238 242 233 263 235 243 243 238 250 245 246 279 244 241 246 245 242 271 250 254 254 252 237 248 249 236 235 240 236 238 238 242 251 309 231 226 223
257 235 253 236 230 253 239 232 261 242 244 236 240 243 240 239 238 246 245 244 257 250 240 247 288 255 251 254 290 273 248 276 276 238 239 238 239 267 245 271 285 231 228
253 241 235 250 256 233 234 248 247 251 245 243 237 238 241 242 250 239 257 247 242 252 259 282 263 269 253 275 253 254 246 258 262 261 244 241 242 241 271 246 271 288 233
244 245 255 242 240 236 251 236 259 240 235 246 251 251 239 239 237 239 245 244 269 246 264 252 284 244 287 248 253 271 293 253 251 252 279 248 245 245 244 247 295 251 266
237 250 234 242 241 251 240 242 239 265 259 239 246 263 259 267 269 234 277 240 241 249 246 249 246 245 250 254 279 258 264 252 279 273 251 251 251 248 245 246 250 252 266
247 243 242 244 240 243 244 245 240 241 240 256 243 248 259 261 246 275 253 244 267 241 245 262 242 244 276 246 243 249 277 271 253 257 285 272 275 252 253 252 246 250 252
249 245 252 249 238 250 242 246 253 244 242 243 244 245 265 243 243 251 244 269 240 237 243 247 241 245 248 246 246 248 279 284 279 279 253 271 263 262 290 257 251 247 249
250 239 251 252 255 244 249 251 248 250 251 240 246 242 246 270 245 249 249 246 245 246 251 236 241 246 275 251 249 252 251 277 278 250 253 270 271 271 249 251 276 252 250
251 252 253 254 255 249 250 247 256 247 256 250 246 261 251 261 264 252 251 252 252 252 263 246 273 243 240 251 255 255 253 249 252 257 258 256 254 247 266 268 251 257 266
249 249 251 252 255 251 251 249 248 249 251 259 249 247 251 262 258 247 255 256 257 264 274 263 254 264 268 263 257 261 259 270 271 267 258 264 265 265 269 255 263 253 258
245 247 247 247 245 253 254 251 254 256 252 257 258 248 256 256 251 262 250 253 267 264 268 264 263 266 255 266 256 265 263 249 267 255 259 254 252 255 254 257 262 258 255
246 246 248 248 248 248 249 252 253 256 257 259 260 260 261 261 249 264 265 266 264 253 258 251 253 266 254 266 266 267 258 262 265 251 259 253 252 252 265 253 261 252 249
243 244 246 246 247 247 248 249 251 253 254 255 255 258 260 260 260 261 261 264 263 263 261 253 246 243 256 250 253 254 263 265 264 253 252 255 247 253 261 258 250 257 253